sat.trackr.live / text

‹ back to catalog

ONEWEB-0262

NORAD 48980 · 2021-060P

PAYLOAD ACTIVE UNKNOWN

§ Identity

Operator
Country
UK
Launch date
2021-07-01
Launch site
VOSTO
Launch vehicle
Mass (kg)
RCS (m²)

Purposes: comms

External: N2YO · Heavens-Above · Gunter

§ Orbital elements

Epoch: 2026-05-24T15:10:36.567552Z

Period
109.37 min
Inclination
87.9107°
Eccentricity
0.0001751
Mean motion
13.16593503 rev/d
Perigee alt
1,196.4 km
Apogee alt
1,199.1 km
Semi-major
7,575.9 km
B*
1.9232e-4
RAAN
233.4467°
Arg perigee
105.5055°
Mean anomaly
254.6269°
Rev number
23,652

§ Raw data

ONEWEB-02621 48980U 21060P   26144.63236768  .00000086  00000+0  19232-3 0  99992 48980  87.9107 233.4467 0001751 105.5055 254.6269 13.16593503236525

JSON: /api/v1/satellites/48980 · /tle

For live sub-satellite position, see the globe view (requires WebGL).

§ Visibility from observer

Set your observer location to see the next 7 days of passes ≥ 10°. The values pass through the URL so the page stays shareable.

No JS? Fill the form by hand. The geolocation button needs JavaScript.